7 * 24
多渠道服务支持
STARLINK-4467是美国SpaceX公司星链星座的一颗卫星,于2022年8月31日发射入轨。星链项目旨在构建全球低轨宽带互联网星座,为全球提供高速网络接入服务。作为量产型低轨卫星,该卫星采用平板设计、霍尔推进技术,具备自主避撞能力,运行在近地轨道,是星链巨型星座组网过程中部署的一员,助力实现全球覆盖的宽带通信目标,设计服役寿命约5-7年,退役后将再入大气层焚毁。
美国
(US)
| 数据来源 | 国际轨道数据 |
| 星历时间: | 2026-09-12T11:12:24+0800 11小时前 查看轨道信息 |
| 半长轴: | 6927.615km |
| 偏心率: | 0.0002058 |
| 轨道倾角: | 97.284° |
| 近地点辐角 | 84.371° |
| 升交点赤经 | 129.331° |
| 平近点角 | 275.775° |
| 近地点: | 548.052km |
| 远地点: | 550.904km |
| 周期: | 95.639分钟 |
| 每日圈数: | 15.056611 |
| 事件ID | 空间交会对象 | 最接近时刻(TCA) | 交会距离 | 交会风险概率(CRP) | 交会风险指数(CRI) | 操作 |
|---|---|---|---|---|---|---|
| CDM_260910-115502-953905-368621 |
CZ-4B DEB
(29539)
STARLINK-4467
(53686) | 2026-09-10T 11:55:52+0000 |
2.548 km
极远距离 | 1.706187E-6 低风险 | 0.4 | |
| CDM_260913-134602-865005-368626 |
HAMSAT
(28650)
STARLINK-4467
(53686) | 2026-09-13T 13:46:08+0000 |
2.755 km
极远距离 | 1.486101E-6 低风险 | 0.38 |